• Join FlightAware (Why Join?)
  • Login
  • US Flag GB Flag 
16:01 EDT


 

Airport Tracker/Info


-or-


 

Live Flight TrackerFlight Track Log ✈ DAL268 ✈ 15-Apr-2013 ✈ KJFK - LLBG / TLV

Flight Track Log - Related Links

Times and Time Zones

All times are in EDT time to prevent confusion due to time zone crossing. See the DAL268 flight status page for this flight to view local times or setup timezone preferences in your user account.

Time Position Orientation Groundspeed Altitude Reporting Facility
EDT Latitude Longitude Course Direction KTS MPH feet Rate Location/Type
23:52 40.6260 -73.7730 118° Southeast 173 199 300  Level FlightAware
23:53 40.6140 -73.7560 133° Southeast 185 213 800 1,320 Climbing FlightAware
23:53 40.5960 -73.7360 140° Southeast 210 242 1,300 960 Climbing FlightAware
23:53 40.5750 -73.7070 134° Southeast 239 275 1,700 840 Climbing FlightAware
23:54 40.5690 -73.6740 103° East 263 303 2,100 1,620 Climbing FlightAware
23:54 40.5710 -73.6210 87° East 276 318 3,200 1,920 Climbing FlightAware
23:55 40.5670 -73.5810 97° East 285 328 3,900 1,680 Climbing FlightAware
23:55 40.5550 -73.5370 110° East 298 343 4,600 2,040 Climbing FlightAware
23:56 40.5418 -73.5038 118° Southeast 302 348 5,400 2,460 Climbing FlightAware ADS-B
23:56 40.5324 -73.4768 115° Southeast 306 352 6,000 2,580 Climbing FlightAware ADS-B
23:56 40.5244 -73.4499 111° Southeast 307 353 6,800 2,760 Climbing FlightAware ADS-B
23:56 40.5163 -73.4220 111° Southeast 308 354 7,500 2,580 Climbing FlightAware ADS-B
23:57 40.5078 -73.3936 111° Southeast 310 357 8,200 2,520 Climbing FlightAware ADS-B
23:57 40.4984 -73.3628 112° Southeast 313 360 8,900 2,820 Climbing FlightAware ADS-B
23:57 40.4895 -73.3329 111° Southeast 311 358 9,800 1,920 Climbing FlightAware ADS-B
23:58 40.4718 -73.2767 112° Southeast 337 388 10,500 1,140 Climbing FlightAware ADS-B
23:58 40.4513 -73.2064 111° Southeast 371 427 11,100 1,260 Climbing FlightAware ADS-B
23:59 40.4309 -73.1369 111° Southeast 393 452 11,900 1,860 Climbing FlightAware ADS-B
23:59 40.4092 -73.0667 112° Southeast 399 459 13,100 2,040 Climbing FlightAware ADS-B
00:00 40.4005 -73.0399 113° Southeast 406 467 13,400 1,380 Climbing FlightAware ADS-B
00:00 40.3944 -73.0176 110° East 413 475 13,600 1,680 Climbing FlightAware ADS-B
00:00 40.3897 -72.9451 95° East 421 484 14,500 1,980 Climbing FlightAware ADS-B
00:01 40.4072 -72.8703 73° East 425 489 15,600 2,220 Climbing FlightAware ADS-B
00:01 40.4282 -72.7929 70° East 430 495 16,800 2,040 Climbing FlightAware ADS-B
00:02 40.4474 -72.7182 71° East 438 504 17,700 1,560 Climbing FlightAware ADS-B
00:02 40.4672 -72.6415 71° East 448 516 18,400 1,440 Climbing FlightAware ADS-B
00:03 40.4880 -72.5617 71° East 459 528 19,200 1,500 Climbing FlightAware ADS-B
00:03 40.5097 -72.4781 71° East 466 536 20,000 1,440 Climbing FlightAware ADS-B
00:04 40.5309 -72.3965 71° East 474 545 20,700 1,500 Climbing FlightAware ADS-B
00:04 40.5545 -72.3058 71° East 479 551 21,600 1,560 Climbing FlightAware ADS-B
00:05 40.5764 -72.2205 71° East 484 557 22,400 1,560 Climbing FlightAware ADS-B
00:05 40.5983 -72.1356 71° East 488 562 23,200 1,440 Climbing FlightAware ADS-B
00:06 40.6410 -71.9670 71° East 495 570 24,600 1,380 Climbing FlightAware
00:07 40.6696 -71.8560 71° East 500 575 25,500 1,260 Climbing FlightAware ADS-B
00:07 40.6925 -71.7651 72° East 506 582 26,100 1,140 Climbing FlightAware ADS-B
00:08 40.7250 -71.6380 71° East 510 587 27,000 1,020 Climbing FlightAware
00:09 40.7700 -71.4580 72° East 519 597 28,000 540 Climbing FlightAware
00:10 40.8010 -71.3380 71° East 519 597 28,000  Level FlightAware
00:11 40.8270 -71.2360 71° East 519 597 28,000  Level FlightAware
00:11 40.8540 -71.1340 71° East 519 597 28,000  Level FlightAware
00:12 40.8870 -71.0070 71° East 519 597 28,000 2,220 Level FlightAware
00:13 40.9190 -70.8510 75° East 509 586 31,000 2,100 Climbing FlightAware
00:14 40.9580 -70.6870 72° East 508 585 31,000  Level FlightAware
00:14 40.9810 -70.5910 72° East 508 585 31,000  Level FlightAware
00:15 41.0120 -70.4650 72° East 508 585 31,000  Level FlightAware
00:16 41.0430 -70.3300 73° East 508 585 31,000  Level FlightAware
00:16 41.0750 -70.1980 72° East 507 583 31,000  Level FlightAware
00:17 41.0970 -70.1030 73° East 508 585 31,000  Level FlightAware
00:18 41.1280 -69.9690 73° East 508 585 31,000  Level FlightAware
00:18 41.1520 -69.8670 73° East 508 585 31,000  Level FlightAware
00:19 41.1890 -69.7070 73° East 510 587 31,000 -120 Level FlightAware
00:20 41.2240 -69.5560 73° East 509 586 30,900  Descending FlightAware
00:21 41.2560 -69.4170 73° East 509 586 31,000 60 Climbing FlightAware
00:21 41.2870 -69.2830 73° East 509 586 31,000  Level FlightAware
00:22 41.3100 -69.1810 73° East 509 586 31,000  Level FlightAware
00:23 41.3330 -69.0790 73° East 509 586 31,000  Level FlightAware
00:23 41.3570 -68.9770 73° East 509 586 31,000 -120 Level FlightAware
00:24 41.3811 -68.8708 73° East 501 577 30,900 -120 Descending Boston Center
00:25 41.4211 -68.6914 73° East 501 577 30,900  Level Boston Center
00:26 41.4586 -68.5092 75° East 501 577 30,900  Level Boston Center
00:27 41.5003 -68.3292 73° East 501 577 30,900  Level Boston Center
00:28 41.5394 -68.1489 74° East 509 586 30,900  Level Boston Center
00:29 41.5836 -67.9461 74° East 504 580 30,900  Level Boston Center
00:30 41.6200 -67.7656 75° East 504 580 30,900  Level Boston Center
00:31 41.6603 -67.5847 73° East 504 580 30,900  Level Boston Center
00:32 41.6983 -67.4067 74° East 504 580 30,900  Level Boston Center
00:33 41.7308 -67.2481 75° East 504 580 30,900  Level Boston Center
00:34 41.7500 -67.0833 81° East 500 575 30,900  Level Moncton Center
00:35 41.8000 -66.9000 70° East 500 575 30,900  Level Moncton Center
00:36 41.8333 -66.7333 75° East 500 575 30,900  Level Moncton Center
00:37 41.9000 -66.5500 64° Northeast 490 564 30,900  Level Moncton Center
00:38 41.9333 -66.4000 73° East 490 564 30,900  Level Moncton Center
00:39 41.9833 -66.2000 71° East 500 575 30,900  Level Moncton Center
00:40 42.0333 -66.0333 68° East 500 575 30,900  Level Moncton Center
00:41 42.0667 -65.8333 77° East 500 575 30,900  Level Moncton Center
00:42 42.1333 -65.6833 59° Northeast 500 575 30,900  Level Moncton Center
00:43 42.1667 -65.5000 76° East 500 575 30,900  Level Moncton Center
00:44 42.2167 -65.3167 70° East 510 587 30,900  Level Moncton Center
00:45 42.2667 -65.1333 70° East 500 575 30,900  Level Moncton Center
00:46 42.3000 -64.9667 75° East 500 575 30,900  Level Moncton Center
00:47 42.3500 -64.7833 70° East 510 587 30,900  Level Moncton Center
00:48 42.4000 -64.6000 70° East 510 587 30,900  Level Moncton Center
00:49 42.4333 -64.4167 76° East 500 575 30,900  Level Moncton Center
00:50 42.4833 -64.2333 70° East 510 587 30,900  Level Moncton Center
00:51 42.5333 -64.0500 70° East 500 575 30,900  Level Moncton Center
00:52 42.5667 -63.8833 75° East 500 575 30,900  Level Moncton Center
00:53 42.6167 -63.7000 70° East 500 575 30,900  Level Moncton Center
00:54 42.6667 -63.5167 70° East 500 575 30,900  Level Moncton Center
00:55 42.7000 -63.3333 76° East 510 587 30,900 480 Level Moncton Center
00:56 42.7500 -63.1500 70° East 510 587 31,900 960 Climbing Moncton Center
00:57 42.7833 -62.9667 76° East 510 587 32,900 480 Climbing Moncton Center
00:58 42.8167 -62.7833 76° East 510 587 32,900  Level Moncton Center
00:59 42.8667 -62.6000 70° East 510 587 32,900  Level Moncton Center
01:00 42.9167 -62.4167 70° East 510 587 32,900  Level Moncton Center
01:01 42.9667 -62.2333 70° East 500 575 32,900  Level Moncton Center
01:02 43.0000 -62.0500 76° East 510 587 32,900  Level Moncton Center
01:03 43.0333 -61.8333 78° East 520 598 32,900  Level Moncton Center
01:04 43.0667 -61.6833 73° East 510 587 32,900  Level Moncton Center
01:05 43.1167 -61.4667 72° East 510 587 32,900  Level Moncton Center
01:06 43.1500 -61.2833 76° East 520 598 32,900  Level Moncton Center
01:07 43.2000 -61.1000 69° East 520 598 32,900  Level Moncton Center
01:08 43.2500 -60.9167 69° East 520 598 32,900  Level Moncton Center
01:09 43.2667 -60.7333 83° East 520 598 32,900  Level Moncton Center
01:10 43.3167 -60.5167 72° East 520 598 32,900  Level Moncton Center
01:11 43.3667 -60.3333 69° East 520 598 32,900  Level Moncton Center
01:12 43.4000 -60.1500 76° East 520 598 32,900  Level Moncton Center
01:12 43.4167 -60.0500 77° East 510 587 32,900  Level Gander Center
01:18 43.6180 -59.0400 77° East 505 581 33,000  Climbing FlightAware
01:18 43.6430 -58.9100 75° East 505 581 33,000  Level FlightAware
01:19 43.6770 -58.7300 75° East 506 582 33,000  Level FlightAware
01:20 43.6970 -58.6230 75° East 506 582 33,000  Level FlightAware
01:21 43.7230 -58.4900 75° East 506 582 33,000  Level FlightAware
01:21 43.7510 -58.3300 76° East 505 581 33,000  Level FlightAware
01:22 43.7720 -58.2230 75° East 505 581 33,000  Level FlightAware
01:23 43.7920 -58.1170 75° East 505 581 33,000  Level FlightAware
01:24 43.8270 -57.9100 77° East 500 575 33,000  Level FlightAware
01:24 43.8560 -57.7500 76° East 500 575 33,000  Level FlightAware
01:25 43.8750 -57.6400 76° East 504 580 33,000  Level FlightAware
01:26 43.8980 -57.5100 76° East 504 580 33,000  Level FlightAware
01:26 43.9170 -57.4030 76° East 504 580 33,000  Level FlightAware
01:27 43.9370 -57.2960 75° East 504 580 33,000  Level FlightAware
01:28 43.9600 -57.1630 76° East 504 580 33,000  Level FlightAware
01:29 43.9800 -57.0560 75° East 504 580 33,000  Level FlightAware
01:29 43.9990 -56.9490 76° East 504 580 33,000  Level FlightAware
01:30 44.0180 -56.8420 76° East 504 580 33,000  Level FlightAware
01:31 44.0370 -56.7350 76° East 504 580 33,000  Level FlightAware
01:31 44.0610 -56.6010 76° East 504 580 33,000  Level FlightAware
01:32 44.0800 -56.4940 76° East 504 580 33,000  Level FlightAware
01:33 44.0990 -56.3870 76° East 504 580 33,000  Level FlightAware
01:33 44.1190 -56.2800 75° East 504 580 33,000  Level FlightAware
01:34 44.1380 -56.1720 76° East 504 580 33,000  Level FlightAware
01:35 44.1620 -56.0380 76° East 504 580 33,000 -120 Level FlightAware
01:35 44.1000 -55.6000 76° East 460 529 32,900 -180 Descending Gander Center
01:36 44.1000 -55.5167 90° East 480 552 32,900  Level Moncton Center
01:37 44.1167 -55.3500 82° East 480 552 32,900  Level Moncton Center
01:39 44.1547 -54.9838 82° East  Level FlightAware Approximate
01:41 44.1667 -54.4667 91° East 510 587 32,900  Level Gander Center
01:42 44.1667 -54.3167 90° East 500 575 32,900  Level Moncton Center
01:43 44.1667 -54.1333 90° East 520 598 32,900  Level Moncton Center
01:44 44.1500 -53.9167 96° East 520 598 32,900  Level Moncton Center
01:45 44.1500 -53.7333 90° East 510 587 32,900  Level Moncton Center
01:46 44.1404 -53.5327 91° East  Level FlightAware Approximate
01:46 44.1500 -53.5500 90° East 510 587 32,900  Level Moncton Center
01:47 44.1500 -53.3333 90° East 510 587 32,900  Level Moncton Center
01:48 44.1667 -53.1500 83° East 520 598 32,900  Level Moncton Center
01:49 44.1500 -52.9333 96° East 510 587 32,900  Level Moncton Center
01:50 44.1500 -52.7500 90° East 510 587 32,900  Level Gander Center
01:50 44.1500 -52.7500 90° East 500 575 32,900  Level Moncton Center
01:50 44.1500 -52.6833 90° East 510 587 32,900  Level Gander Center
01:51 44.1500 -52.5000 90° East 510 587 32,900  Level Gander Center
01:52 44.1500 -52.3167 90° East 510 587 32,900  Level Gander Center
01:53 44.1333 -52.1000 96° East 520 598 32,900  Level Gander Center
01:54 44.1167 -51.9333 98° East 520 598 32,900  Level Moncton Center
01:55 44.1167 -51.7500 90° East 510 587 32,900  Level Moncton Center
01:56 44.1000 -51.5333 96° East 510 587 32,900 60 Level Moncton Center
01:56 44.1667 -52.4333 95° East 528 608 33,000  Climbing New York Oceanic (ODAPS)
01:57 44.0833 -51.3000 95° East 520 598 32,900 -60 Descending Gander Center
01:58 44.0667 -51.1167 97° East 510 587 32,900  Level Gander Center
01:59 44.0500 -50.9333 97° East 510 587 32,900  Level Gander Center
02:01 44.0346 -50.6293 94° East  Level FlightAware Approximate
02:05 44.0000 -50.0000 71° East 520 598 33,000  Level New York Oceanic (ODAPS)
02:08 44.1887 -49.2189 71° East  Level FlightAware Approximate
02:09 44.2355 -49.0210 72° East  Level FlightAware Approximate
02:10 44.2820 -48.8228 72° East  Level FlightAware Approximate
02:11 44.3281 -48.6242 72° East  Level FlightAware Approximate
02:12 44.3705 -48.4791 72° East 520 598 33,000  Level FlightAware Transoceanic
02:13 44.4154 -48.2877 72° East 520 598 33,000  Level FlightAware Transoceanic
02:14 44.4600 -48.0960 72° East 520 598 33,000  Level FlightAware Transoceanic
02:15 44.5043 -47.9039 72° East 520 598 33,000  Level FlightAware Transoceanic
02:16 44.5482 -47.7116 72° East 520 598 33,000  Level FlightAware Transoceanic
02:17 44.5918 -47.5190 72° East 520 598 33,000  Level FlightAware Transoceanic
02:18 44.6351 -47.3261 73° East 520 598 33,000  Level FlightAware Transoceanic
02:19 44.6780 -47.1329 73° East 520 598 33,000  Level FlightAware Transoceanic
02:20 44.7207 -46.9394 73° East 520 598 33,000  Level FlightAware Transoceanic
02:21 44.7630 -46.7457 73° East 520 598 33,000  Level FlightAware Transoceanic
02:22 44.8049 -46.5517 73° East 520 598 33,000  Level FlightAware Transoceanic
02:23 44.8466 -46.3573 73° East 520 598 33,000  Level FlightAware Transoceanic
02:24 44.8879 -46.1627 73° East 520 598 33,000  Level FlightAware Transoceanic
02:25 44.9289 -45.9678 74° East 520 598 33,000  Level FlightAware Transoceanic
02:26 44.9695 -45.7727 74° East 520 598 33,000  Level FlightAware Transoceanic
02:27 45.0098 -45.5773 74° East 520 598 33,000  Level FlightAware Transoceanic
02:28 45.0498 -45.3816 74° East 520 598 33,000  Level FlightAware Transoceanic
02:29 45.0895 -45.1856 74° East 520 598 33,000  Level FlightAware Transoceanic
02:30 45.1288 -44.9893 74° East 520 598 33,000  Level FlightAware Transoceanic
02:31 45.1678 -44.7928 74° East 520 598 33,000  Level FlightAware Transoceanic
02:32 45.2064 -44.5960 75° East 520 598 33,000  Level FlightAware Transoceanic
02:33 45.2447 -44.3990 75° East 520 598 33,000  Level FlightAware Transoceanic
02:34 45.2827 -44.2017 75° East 520 598 33,000  Level FlightAware Transoceanic
02:35 45.3203 -44.0041 75° East 520 598 33,000  Level FlightAware Transoceanic
02:36 45.3576 -43.8063 75° East 520 598 33,000  Level FlightAware Transoceanic
02:37 45.3945 -43.6081 75° East 520 598 33,000  Level FlightAware Transoceanic
02:38 45.4311 -43.4098 75° East 520 598 33,000  Level FlightAware Transoceanic
02:39 45.4674 -43.2112 75° East 520 598 33,000  Level FlightAware Transoceanic
02:40 45.5033 -43.0123 76° East 520 598 33,000  Level FlightAware Transoceanic
02:41 45.5389 -42.8132 76° East 520 598 33,000  Level FlightAware Transoceanic
02:42 45.5741 -42.6138 76° East 520 598 33,000  Level FlightAware Transoceanic
02:43 45.6090 -42.4142 76° East 520 598 33,000  Level FlightAware Transoceanic
02:44 45.6435 -42.2143 76° East 520 598 33,000  Level FlightAware Transoceanic
02:45 45.6776 -42.0142 76° East 520 598 33,000  Level FlightAware Transoceanic
02:46 45.7115 -41.8138 76° East 520 598 33,000  Level FlightAware Transoceanic
02:47 45.7449 -41.6132 77° East 520 598 33,000  Level FlightAware Transoceanic
02:48 45.7781 -41.4124 77° East 520 598 33,000  Level FlightAware Transoceanic
02:49 45.8108 -41.2113 77° East 520 598 33,000  Level FlightAware Transoceanic
02:50 45.8433 -41.0100 77° East 520 598 33,000  Level FlightAware Transoceanic
02:51 45.8753 -40.8085 77° East 520 598 33,000  Level FlightAware Transoceanic
02:52 45.9070 -40.6067 77° East 520 598 33,000  Level FlightAware Transoceanic
02:53 45.9384 -40.4047 77° East 520 598 33,000  Level FlightAware Transoceanic
02:54 45.9694 -40.2025 78° East 520 598 33,000  Level FlightAware Transoceanic
02:55 46.0000 -40.0000 70° East 520 598 33,000  Level FlightAware Transoceanic
02:56 46.0503 -39.7996 70° East 520 598 33,000  Level FlightAware Transoceanic
02:57 46.1003 -39.5989 70° East 520 598 33,000  Level FlightAware Transoceanic
02:57 46.0000 -40.0000 70° East 532 612 33,000  Level ETMS Enhanced Traffic Management System
02:58 46.1500 -39.3978 70° East 520 598 33,000  Level FlightAware Transoceanic
02:59 46.1993 -39.1964 71° East 520 598 33,000  Level FlightAware Transoceanic
03:00 46.2482 -38.9946 71° East 520 598 33,000  Level FlightAware Transoceanic
03:01 46.2968 -38.7924 71° East 520 598 33,000  Level FlightAware Transoceanic
03:02 46.3450 -38.5899 71° East 520 598 33,000  Level FlightAware Transoceanic
03:03 46.3450 -38.5899 71° East 532 612 33,000  Level FlightAware Transoceanic
03:04 46.3928 -38.3870 71° East 532 612 33,000  Level FlightAware Transoceanic
03:05 46.4403 -38.1838 71° East 532 612 33,000  Level FlightAware Transoceanic
03:06 46.4875 -37.9802 71° East 532 612 33,000  Level FlightAware Transoceanic
03:07 46.5343 -37.7763 72° East 532 612 33,000  Level FlightAware Transoceanic
03:08 46.5807 -37.5720 72° East 532 612 33,000  Level FlightAware Transoceanic
03:09 46.6267 -37.3674 72° East 532 612 33,000  Level FlightAware Transoceanic
03:10 46.6724 -37.1624 72° East 532 612 33,000  Level FlightAware Transoceanic
03:11 46.7177 -36.9571 72° East 532 612 33,000  Level FlightAware Transoceanic
03:12 46.7627 -36.7514 72° East 532 612 33,000  Level FlightAware Transoceanic
03:13 46.8073 -36.5454 73° East 532 612 33,000  Level FlightAware Transoceanic
03:14 46.8515 -36.3390 73° East 532 612 33,000  Level FlightAware Transoceanic
03:15 46.8953 -36.1323 73° East 532 612 33,000  Level FlightAware Transoceanic
03:16 46.9388 -35.9253 73° East 532 612 33,000  Level FlightAware Transoceanic
03:17 46.9819 -35.7179 73° East 532 612 33,000  Level FlightAware Transoceanic
03:18 47.0246 -35.5102 73° East 532 612 33,000  Level FlightAware Transoceanic
03:19 47.0669 -35.3022 73° East 532 612 33,000  Level FlightAware Transoceanic
03:20 47.1089 -35.0938 74° East 532 612 33,000  Level FlightAware Transoceanic
03:21 47.1505 -34.8851 74° East 532 612 33,000  Level FlightAware Transoceanic
03:22 47.1917 -34.6761 74° East 532 612 33,000  Level FlightAware Transoceanic
03:23 47.2325 -34.4668 74° East 532 612 33,000  Level FlightAware Transoceanic
03:24 47.2730 -34.2571 74° East 532 612 33,000  Level FlightAware Transoceanic
03:25 47.3130 -34.0472 74° East 532 612 33,000  Level FlightAware Transoceanic
03:26 47.3527 -33.8369 75° East 532 612 33,000  Level FlightAware Transoceanic
03:27 47.3920 -33.6263 75° East 532 612 33,000  Level FlightAware Transoceanic
03:28 47.4309 -33.4154 75° East 532 612 33,000  Level FlightAware Transoceanic
03:29 47.4694 -33.2041 75° East 532 612 33,000  Level FlightAware Transoceanic
03:30 47.5076 -32.9926 75° East 532 612 33,000  Level FlightAware Transoceanic
03:31 47.5453 -32.7807 75° East 532 612 33,000  Level FlightAware Transoceanic
03:32 47.5826 -32.5686 75° East 532 612 33,000  Level FlightAware Transoceanic
03:33 47.6196 -32.3561 76° East 532 612 33,000  Level FlightAware Transoceanic
03:34 47.6562 -32.1434 76° East 532 612 33,000  Level FlightAware Transoceanic
03:35 47.6923 -31.9303 76° East 532 612 33,000  Level FlightAware Transoceanic
03:36 47.7281 -31.7170 76° East 532 612 33,000  Level FlightAware Transoceanic
03:37 47.7635 -31.5034 76° East 532 612 33,000  Level FlightAware Transoceanic
03:38 47.7985 -31.2894 76° East 532 612 33,000  Level FlightAware Transoceanic
03:39 47.8331 -31.0752 77° East 532 612 33,000  Level FlightAware Transoceanic
03:40 47.8673 -30.8608 77° East 532 612 33,000  Level FlightAware Transoceanic
03:41 47.9011 -30.6460 77° East 532 612 33,000  Level FlightAware Transoceanic
03:42 47.9344 -30.4309 77° East 532 612 33,000  Level FlightAware Transoceanic
03:43 47.9509 -30.2233 83° East  Level Estimated
03:44 47.9670 -30.0155 83° East  Level Estimated
03:45 47.9827 -29.8076 83° East  Level Estimated
03:46 47.9980 -29.5995 84° East  Level Estimated
03:47 48.0129 -29.3914 84° East  Level Estimated
03:47 48.0000 -30.0000 78° East 573 659 33,000  Level ETMS Enhanced Traffic Management System
03:48 48.0275 -29.1831 84° East  Level Estimated
03:49 48.0417 -28.9747 84° East  Level Estimated
03:50 48.0555 -28.7662 84° East  Level Estimated
03:51 48.0690 -28.5576 84° East  Level Estimated
03:52 48.0820 -28.3488 85° East  Level Estimated
03:53 48.0880 -28.7498 84° East  Level Estimated
03:54 48.1013 -28.5410 84° East  Level Estimated
03:55 48.1143 -28.3322 85° East  Level Estimated
03:56 48.1269 -28.1232 85° East  Level Estimated
03:57 48.1391 -27.9141 85° East  Level Estimated
03:58 48.1510 -27.7049 85° East  Level Estimated
03:59 48.1624 -27.4957 85° East  Level Estimated
04:00 48.1735 -27.2863 85° East  Level Estimated
04:01 48.1842 -27.0769 86° East  Level Estimated
04:02 48.1945 -26.8673 86° East  Level Estimated
04:03 48.2044 -26.6577 86° East  Level Estimated
04:04 48.2140 -26.4480 86° East  Level Estimated
04:05 48.2231 -26.2382 86° East  Level Estimated
04:06 48.2319 -26.0284 86° East  Level Estimated
04:07 48.2403 -25.8184 86° East  Level Estimated
04:08 48.2483 -25.6084 87° East  Level Estimated
04:09 48.2560 -25.3984 87° East  Level Estimated
04:10 48.2632 -25.1883 87° East  Level Estimated
04:11 48.2701 -24.9781 87° East  Level Estimated
04:12 48.2766 -24.7679 87° East  Level Estimated
04:13 48.2827 -24.5576 87° East  Level Estimated
04:14 48.2884 -24.3473 88° East  Level Estimated
04:15 48.2938 -24.1369 88° East  Level Estimated
04:16 48.2987 -23.9265 88° East  Level Estimated
04:17 48.3033 -23.7160 88° East  Level Estimated
04:18 48.3075 -23.5056 88° East  Level Estimated
04:19 48.3113 -23.2950 88° East  Level Estimated
04:20 48.3147 -23.0845 89° East  Level Estimated
04:21 48.3177 -22.8739 89° East  Level Estimated
04:22 48.3204 -22.6633 89° East  Level Estimated
04:23 48.3227 -22.4527 89° East  Level Estimated
04:24 48.3245 -22.2421 89° East  Level Estimated
04:25 48.3260 -22.0314 89° East  Level Estimated
04:26 48.3271 -21.8207 89° East  Level Estimated
04:27 48.3279 -21.6101 90° East  Level Estimated
04:28 48.3282 -21.3987 90° East  Level Estimated
04:29 48.3282 -21.1873 90° East  Level Estimated
04:30 48.3278 -20.9759 90° East  Level Estimated
04:31 48.3269 -20.7645 90° East  Level Estimated
04:32 48.3257 -20.5532 90° East  Level Estimated
04:33 48.3241 -20.3418 91° East  Level Estimated
04:34 48.3222 -20.1304 91° East  Level Estimated
04:35 48.3198 -19.9191 91° East  Level Estimated
04:36 48.3170 -19.7078 91° East  Level Estimated
04:37 48.3139 -19.4965 91° East  Level Estimated
04:38 48.3104 -19.2853 91° East  Level Estimated
04:39 48.3064 -19.0741 92° East  Level Estimated
04:40 48.3022 -18.8629 92° East  Level Estimated
04:41 48.2975 -18.6517 92° East  Level Estimated
04:42 48.2924 -18.4406 92° East  Level Estimated
04:43 48.2869 -18.2295 92° East  Level Estimated
04:44 48.2811 -18.0185 92° East  Level Estimated
04:45 48.2748 -17.8076 92° East  Level Estimated
04:46 48.2682 -17.5966 93° East  Level Estimated
04:47 48.2612 -17.3858 93° East  Level Estimated
04:48 48.2538 -17.1750 93° East  Level Estimated
04:49 48.2461 -16.9642 93° East  Level Estimated
04:50 48.2379 -16.7536 93° East  Level Estimated
04:51 48.2294 -16.5429 93° East  Level Estimated
04:52 48.2204 -16.3324 94° East  Level Estimated
04:53 48.2111 -16.1220 94° East  Level Estimated
04:54 48.2014 -15.9116 94° East  Level Estimated
04:55 48.1913 -15.7013 94° East  Level Estimated
04:56 48.1809 -15.4911 94° East  Level Estimated
04:57 48.1700 -15.2809 94° East  Level Estimated
04:58 48.1588 -15.0709 95° East  Level Estimated
04:59 48.1472 -14.8610 95° East  Level Estimated
05:00 48.1352 -14.6511 95° East  Level Estimated
05:01 48.1228 -14.4413 95° East  Level Estimated
05:02 48.1101 -14.2317 95° East  Level Estimated
05:03 48.0969 -14.0222 95° East  Level Estimated
05:04 48.0834 -13.8127 95° East  Level Estimated
05:05 48.0695 -13.6034 96° East  Level Estimated
05:06 48.0552 -13.3942 96° East  Level Estimated
05:07 48.0406 -13.1851 96° East  Level Estimated
05:08 48.0255 -12.9761 96° East  Level Estimated
05:09 48.0101 -12.7673 96° East  Level Estimated
05:10 47.9943 -12.5586 96° East  Level Estimated
05:11 47.9781 -12.3500 97° East  Level Estimated
05:11 48.7460 -8.8840 97° East 556 640 33,000  Level FlightAware
05:11 48.7302 -8.6861 97° East 1 1 31,400  Descending FlightAware UK
05:11 48.7340 -8.7210 97° East 556 640 33,000  Climbing FlightAware
05:12 47.9616 -12.1415 97° East  Level Estimated
05:12 48.7252 -8.6163 97° East 1 1 31,400  Level FlightAware UK
05:12 48.7203 -8.5464 96° East 482 555 31,400 3,840 Level FlightAware UK
05:12 48.7230 -8.5690 96° East 556 640 33,000  Climbing FlightAware
05:12 48.7134 -8.4537 96° East 480 552 31,400 -2,760 Descending FlightAware UK
05:13 48.7081 -8.3842 97° East 480 552 31,400  Level FlightAware UK
05:13 48.7028 -8.3148 97° East 480 552 31,400 3,840 Level FlightAware UK
05:13 48.7050 -8.3300 97° East 554 638 33,000  Climbing FlightAware
05:13 48.6958 -8.2223 97° East 478 550 31,400 -2,760 Descending FlightAware UK
05:14 48.6905 -8.1529 97° East 478 550 31,400 4,140 Level FlightAware UK
05:14 48.6930 -8.1810 97° East 554 638 33,000  Climbing FlightAware
05:14 48.6835 -8.0604 97° East 480 552 31,400 -2,640 Descending FlightAware UK
05:14 48.6778 -7.9910 97° East 482 555 31,400 4,560 Level FlightAware UK
05:14 48.6800 -8.0320 97° East 547 629 33,000  Climbing FlightAware
05:15 48.6621 -7.9254 97° East 482 555 31,400 -2,940 Descending FlightAware UK
05:15 48.6496 -7.8604 106° East 482 555 31,400 3,180 Level FlightAware UK
05:15 48.6460 -7.8610 106° East 543 625 33,000  Climbing FlightAware
05:16 48.6278 -7.7515 106° East 480 552 31,400 -2,700 Descending FlightAware UK
05:16 48.6149 -7.6861 107° East 482 555 31,400 4,320 Level FlightAware UK
05:16 48.6170 -7.7150 107° East 540 621 33,000  Climbing FlightAware
05:16 48.5984 -7.5988 107° East 482 555 31,400 -2,580 Descending FlightAware UK
05:17 48.5863 -7.5334 106° East 482 555 31,400 3,840 Level FlightAware UK
05:17 48.5860 -7.5520 106° East 538 619 33,000  Climbing FlightAware
05:17 48.5689 -7.4470 106° East 482 555 31,400 -2,760 Descending FlightAware UK
05:17 48.5551 -7.3829 108° East 482 555 31,400 4,140 Level FlightAware UK
05:17 48.5560 -7.4130 108° East 532 612 33,000  Climbing FlightAware
05:18 48.5362 -7.2981 108° East 480 552 31,400 -2,640 Descending FlightAware UK
05:18 48.5223 -7.2348 108° East 480 552 31,400 4,560 Level FlightAware UK
05:18 48.5260 -7.2780 108° East 533 613 33,000  Climbing FlightAware
05:18 48.5085 -7.1714 108° East 478 550 31,400 -2,520 Descending FlightAware UK
05:19 48.4905 -7.0869 108° East 478 550 31,400 3,000 Level FlightAware UK
05:19 48.4910 -7.1130 108° East 530 610 32,900  Climbing FlightAware
05:19 48.4726 -7.0025 108° East 476 548 31,400 -2,520 Descending FlightAware UK
05:19 48.4591 -6.9392 108° East 474 545 31,400 4,320 Level FlightAware UK
05:19 48.4630 -6.9830 108° East 530 610 33,000  Climbing FlightAware
05:20 48.4410 -6.8542 108° East 474 545 31,400  Descending FlightAware UK
05:20 48.4350 -6.8560 108° East 531 611 33,000  Climbing FlightAware
05:20 48.4275 -6.7911 108° East 476 548 31,400 -6,420 Descending FlightAware UK
05:20 48.4184 -6.7489 108° East 474 545 31,400  Level FlightAware UK
05:21 48.4047 -6.6857 108° East 476 548 31,400 2,700 Level FlightAware UK
05:21 48.3980 -6.6830 108° East 533 613 33,000  Climbing FlightAware
05:21 48.3911 -6.6225 108° East 478 550 31,400 -5,100 Descending FlightAware UK
05:21 48.3775 -6.5592 108° East 476 548 31,400  Level FlightAware UK
05:21 48.3637 -6.4958 108° East 478 550 31,400 4,560 Level FlightAware UK
05:21 48.3650 -6.5330 108° East 534 615 33,000  Climbing FlightAware
05:22 48.3498 -6.4325 108° East 476 548 31,400 -2,940 Descending FlightAware UK
05:22 48.3357 -6.3693 109° East 476 548 31,400 3,180 Level FlightAware UK
05:22 48.3300 -6.3750 109° East 535 616 33,000  Climbing FlightAware
05:23 48.3124 -6.2640 109° East 476 548 31,400 -2,040 Descending FlightAware UK
05:23 48.2982 -6.2005 109° East 478 550 31,800 2,460 Climbing FlightAware UK
05:23 48.2990 -6.2360 109° East 33,300 2,880 Climbing FlightAware
05:24 48.2600 -6.0660 109° East 542 624 34,200 -240 Climbing FlightAware
05:24 48.2463 -5.9669 109° East 482 555 33,100 -1,380 Descending FlightAware UK
05:24 48.2321 -5.9031 109° East 482 555 33,400 4,680 Climbing FlightAware UK
05:24 48.2290 -5.9270 109° East 546 628 34,900  Climbing FlightAware
05:25 48.2078 -5.7961 109° East 486 559 33,400 120 Descending FlightAware UK
05:25 48.1960 -5.7820 109° East 547 629 35,000  Climbing FlightAware
05:25 48.1831 -5.6878 109° East 486 559 33,400  Descending FlightAware UK
05:28 48.0680 -5.2310 109° East 543 625 35,000 480 Climbing FlightAware
05:28 48.0830 -5.2960 289° West 543 625 35,000  Level FlightAware
05:29 47.9970 -4.9300 109° East 543 625 35,000  Level FlightAware
05:30 47.9630 -4.7890 110° East 542 624 35,000  Level FlightAware
05:30 47.9240 -4.6290 110° East 542 624 35,000  Level FlightAware
05:31 47.8890 -4.4890 110° East 541 623 35,000  Level FlightAware
05:32 47.8510 -4.3360 110° East 540 621 35,000  Level FlightAware
05:33 47.8100 -4.1720 110° East 540 621 35,000  Level FlightAware
05:33 47.7620 -3.9780 110° East 539 620 35,000  Level FlightAware
05:34 47.7290 -3.8490 111° Southeast 538 619 35,000  Level FlightAware
05:35 47.6840 -3.7150 116° Southeast 534 615 35,000  Level FlightAware
05:36 47.6270 -3.5660 120° Southeast 532 612 35,000  Level FlightAware
05:36 47.5800 -3.4420 119° Southeast 531 611 35,000  Level FlightAware
05:37 47.5260 -3.3010 120° Southeast 531 611 35,000  Level FlightAware
05:38 47.4790 -3.1790 120° Southeast 531 611 35,000  Level FlightAware
05:38 47.4210 -3.0290 120° Southeast 532 612 35,000  Level FlightAware
05:39 47.3740 -2.9060 119° Southeast 531 611 35,000  Level FlightAware
05:40 47.3240 -2.7780 120° Southeast 532 612 35,000  Level FlightAware
05:40 47.2750 -2.6520 120° Southeast 531 611 35,000  Level FlightAware
05:41 47.2220 -2.5150 120° Southeast 529 609 35,000  Level FlightAware
05:42 47.1720 -2.3880 120° Southeast 528 608 35,000  Level FlightAware
05:42 47.1240 -2.2670 120° Southeast 529 609 35,000  Level FlightAware
05:43 47.0680 -2.1260 120° Southeast 528 608 35,000  Level FlightAware
05:44 47.0130 -1.9880 120° Southeast 528 608 35,000  Level FlightAware
05:45 46.9630 -1.8620 120° Southeast 529 609 35,000  Level FlightAware
05:45 46.9120 -1.7350 120° Southeast 529 609 35,000  Level FlightAware
05:46 46.8580 -1.6020 121° Southeast 529 609 35,000  Level FlightAware
05:47 46.8080 -1.4780 120° Southeast 528 608 35,000  Level FlightAware
05:47 46.7520 -1.3400 121° Southeast 528 608 35,000  Level FlightAware
05:48 46.7020 -1.2160 120° Southeast 528 608 35,000  Level FlightAware
05:49 46.6520 -1.0950 121° Southeast 527 606 35,000  Level FlightAware
05:50 46.6030 -0.9550 117° Southeast 532 612 35,000  Level FlightAware
05:50 46.5580 -0.7790 110° East 533 613 35,000  Level FlightAware
05:51 46.5100 -0.6060 112° Southeast 533 613 35,000  Level FlightAware
05:52 46.4800 -0.4930 111° Southeast 533 613 35,000  Level FlightAware
05:53 46.4500 -0.3790 111° Southeast 533 613 35,000  Level FlightAware
05:53 46.4200 -0.2660 111° Southeast 533 613 35,000  Level FlightAware
05:54 46.3650 -0.0560 111° Southeast 535 616 35,000  Level FlightAware
05:55 46.3290 0.0810 111° Southeast 535 616 35,000  Level FlightAware
05:56 46.2980 0.1940 112° Southeast 535 616 35,000  Level FlightAware
05:56 46.2680 0.3080 111° Southeast 535 616 35,000  Level FlightAware
05:57 46.2310 0.4500 111° Southeast 535 616 35,000  Level FlightAware
05:58 46.2000 0.5640 111° Southeast 535 616 35,000  Level FlightAware
05:58 46.1700 0.6770 111° Southeast 535 616 35,000  Level FlightAware
05:59 46.1400 0.7910 111° Southeast 535 616 35,000  Level FlightAware
06:00 46.1100 0.9040 111° Southeast 535 616 35,000  Level FlightAware
06:01 46.0720 1.0450 111° Southeast 535 616 35,000  Level FlightAware
06:01 46.0420 1.1590 111° Southeast 535 616 35,000  Level FlightAware
06:02 45.9440 1.4800 114° Southeast 529 609 35,000  Level FlightAware
06:03 45.8950 1.6490 113° Southeast 530 610 35,000  Level FlightAware
06:03 45.8600 1.7750 112° Southeast 530 610 35,000  Level FlightAware
06:04 45.8170 1.9230 113° Southeast 530 610 35,000  Level FlightAware
06:05 45.7800 2.0500 113° Southeast 530 610 35,000  Level FlightAware
06:05 45.7420 2.1820 112° Southeast 529 609 35,000  Level FlightAware
06:06 45.7000 2.3250 113° Southeast 528 608 35,000  Level FlightAware
06:07 45.6610 2.4570 113° Southeast 529 609 35,000  Level FlightAware
06:08 45.6190 2.5980 113° Southeast 528 608 35,000  Level FlightAware
06:08 45.5810 2.7280 113° Southeast 526 605 35,000  Level FlightAware
06:09 45.5470 2.8390 114° Southeast 526 605 35,000  Level FlightAware
06:10 45.5120 2.9610 112° Southeast 524 603 35,000  Level FlightAware
06:10 45.4580 3.1380 113° Southeast 523 602 35,000  Level FlightAware
06:11 45.4250 3.2460 113° Southeast 523 602 35,000  Level FlightAware
06:12 45.3700 3.4240 114° Southeast 522 601 35,000  Level FlightAware
06:13 45.3330 3.5430 114° Southeast 523 602 35,000  Level FlightAware
06:13 45.2910 3.6800 114° Southeast 519 597 35,000  Level FlightAware
06:14 45.2560 3.8160 110° East 517 595 35,000  Level FlightAware
06:16 45.1620 4.1580 111° Southeast 522 601 35,000  Level FlightAware
06:16 45.1400 4.1880 136° Southeast 35,000  Level FlightAware
06:17 45.0810 4.3140 124° Southeast 525 604 35,000  Level FlightAware
06:18 45.0180 4.4480 124° Southeast 523 602 35,000  Level FlightAware
06:18 44.9580 4.5740 124° Southeast 523 602 35,000  Level FlightAware
06:19 44.9020 4.6900 124° Southeast 523 602 35,000  Level FlightAware
06:20 44.8510 4.7970 124° Southeast 524 603 35,000  Level FlightAware
06:20 44.7900 4.9240 124° Southeast 523 602 35,000  Level FlightAware
06:21 44.7330 5.0420 124° Southeast 519 597 35,000  Level FlightAware
06:22 44.6740 5.1620 125° Southeast 524 603 35,000  Level FlightAware
06:22 44.6220 5.2550 128° Southeast 525 604 35,000  Level FlightAware
06:23 44.5520 5.3950 125° Southeast 518 596 35,000  Level FlightAware
06:24 44.4990 5.5000 125° Southeast 517 595 35,000  Level FlightAware
06:25 44.4330 5.6290 126° Southeast 522 601 35,000  Level FlightAware
06:25 44.3790 5.7320 126° Southeast 522 601 35,000  Level FlightAware
06:26 44.3100 5.8640 126° Southeast 522 601 35,000  Level FlightAware
06:27 44.2530 5.9710 127° Southeast 520 598 35,000 -120 Level FlightAware
06:27 44.1880 6.0950 126° Southeast 520 598 34,900  Descending FlightAware
06:28 44.1390 6.1860 127° Southeast 519 597 35,000 60 Climbing FlightAware
06:29 44.0770 6.3040 126° Southeast 518 596 35,000  Level FlightAware
06:29 44.0120 6.4260 127° Southeast 520 598 35,000  Level FlightAware
06:30 43.9360 6.5680 127° Southeast 517 595 35,000  Level FlightAware
06:31 43.8520 6.7220 127° Southeast 523 602 35,000  Level FlightAware
06:32 43.8030 6.8130 127° Southeast 518 596 35,000  Level FlightAware
06:33 43.7270 6.9470 128° Southeast 525 604 35,000  Level FlightAware
06:33 43.6590 7.0550 131° Southeast 525 604 35,000  Level FlightAware
06:34 43.5880 7.1660 131° Southeast 525 604 35,000  Level FlightAware
06:35 43.5250 7.2660 131° Southeast 526 605 35,000  Level FlightAware
06:35 43.4630 7.3650 131° Southeast 526 605 35,000  Level FlightAware
06:36 43.3880 7.4830 131° Southeast 525 604 35,000  Level FlightAware
06:37 43.3290 7.5810 130° Southeast 522 601 35,000 -120 Level FlightAware
06:38 43.2720 7.7080 122° Southeast 517 595 34,900  Descending FlightAware
06:38 43.2260 7.8260 118° Southeast 517 595 35,000 60 Climbing FlightAware
06:39 43.1820 7.9410 118° Southeast 516 594 35,000  Level FlightAware
06:40 43.1290 8.0760 118° Southeast 517 595 35,000  Level FlightAware
06:40 43.0850 8.1900 118° Southeast 517 595 35,000  Level FlightAware
06:41 43.0390 8.3070 118° Southeast 517 595 35,000  Level FlightAware
06:42 42.9900 8.4320 118° Southeast 519 597 35,000  Level FlightAware
06:42 42.9440 8.5470 119° Southeast 518 596 35,000  Level FlightAware
06:43 42.8910 8.6780 119° Southeast 519 597 35,000  Level FlightAware
06:44 42.8490 8.7830 119° Southeast 519 597 35,000 -120 Level FlightAware
06:45 42.7930 8.9240 118° Southeast 518 596 34,900  Descending FlightAware
06:45 42.7500 9.0360 118° Southeast 512 589 35,000 60 Climbing FlightAware
06:46 42.7170 9.1530 111° Southeast 510 587 35,000  Level FlightAware
06:47 42.6760 9.2930 112° Southeast 511 588 35,000  Level FlightAware
06:47 42.6400 9.4140 112° Southeast 511 588 35,000  Level FlightAware
06:48 42.6040 9.5310 113° Southeast 508 585 35,000  Level FlightAware
06:49 42.5650 9.6630 112° Southeast 506 582 35,000  Level FlightAware
06:49 42.5310 9.7810 111° Southeast 505 581 35,000  Level FlightAware
06:50 42.4920 9.9110 112° Southeast 503 579 35,000  Level FlightAware
06:51 42.4570 10.0290 112° Southeast 501 577 35,000  Level FlightAware
06:52 42.4180 10.1580 112° Southeast 500 575 35,000  Level FlightAware
06:52 42.3870 10.2640 112° Southeast 498 573 35,000  Level FlightAware
06:53 42.3440 10.4060 112° Southeast 499 574 35,000  Level FlightAware
06:54 42.3100 10.5210 112° Southeast 497 572 35,000  Level FlightAware
06:54 42.2760 10.6320 112° Southeast 496 571 35,000  Level FlightAware
06:55 42.2330 10.7610 114° Southeast 499 574 35,000  Level FlightAware
06:56 42.1740 10.8580 129° Southeast 504 580 35,000  Level FlightAware
06:57 42.1090 10.9670 129° Southeast 504 580 35,000 -120 Level FlightAware
06:57 42.0550 11.0620 127° Southeast 498 573 34,900 -120 Descending FlightAware
06:58 41.9990 11.1620 127° Southeast 497 572 34,900 60 Level FlightAware
06:59 41.9390 11.2700 127° Southeast 500 575 35,000  Climbing FlightAware
06:59 41.8800 11.3690 129° Southeast 494 568 34,900  Descending FlightAware
07:00 41.8220 11.4640 129° Southeast 492 566 35,000  Climbing FlightAware
07:01 41.7570 11.5720 129° Southeast 489 563 34,900  Descending FlightAware
07:01 41.7010 11.6650 129° Southeast 492 566 35,000 60 Climbing FlightAware
07:02 41.6350 11.7730 129° Southeast 489 563 35,000  Level FlightAware
07:03 41.5790 11.8650 129° Southeast 490 564 35,000  Level FlightAware
07:03 41.5210 11.9610 129° Southeast 491 565 35,000  Level FlightAware
07:04 41.4660 12.0500 129° Southeast 491 565 35,000 -120 Level FlightAware
07:05 41.4030 12.1530 129° Southeast 487 560 34,900  Descending FlightAware
07:06 41.3350 12.2640 129° Southeast 487 560 35,000  Climbing FlightAware
07:06 41.2770 12.3580 129° Southeast 487 560 34,900  Descending FlightAware
07:07 41.2180 12.4530 130° Southeast 488 562 35,000  Climbing FlightAware
07:08 41.1530 12.5580 129° Southeast 488 562 34,900  Descending FlightAware
07:08 41.0950 12.6510 130° Southeast 487 560 35,000 60 Climbing FlightAware
07:09 41.0340 12.7530 128° Southeast 487 560 35,000  Level FlightAware
07:10 40.9840 12.8290 131° Southeast 488 562 35,000 -120 Level FlightAware
07:11 40.9080 12.9590 128° Southeast 496 571 34,900  Descending FlightAware
07:11 40.8500 13.0900 120° Southeast 499 574 35,000 60 Climbing FlightAware
07:12 40.8160 13.1720 119° Southeast 499 574 35,000  Level FlightAware
07:13 40.7630 13.3270 114° Southeast 498 573 35,000  Level FlightAware
07:13 40.7290 13.4210 115° Southeast 497 572 35,000  Level FlightAware
07:14 40.6780 13.5660 115° Southeast 499 574 35,000  Level FlightAware
07:15 40.6370 13.6800 115° Southeast 499 574 35,000  Level FlightAware
07:16 40.5950 13.7960 115° Southeast 500 575 35,000  Level FlightAware
07:16 40.5560 13.9040 115° Southeast 500 575 35,000  Level FlightAware
07:17 40.5160 14.0140 116° Southeast 500 575 35,000  Level FlightAware
07:18 40.4700 14.1400 116° Southeast 500 575 35,000  Level FlightAware
07:18 40.4300 14.2500 116° Southeast 501 577 35,000  Level FlightAware
07:19 40.3850 14.3720 116° Southeast 501 577 35,000  Level FlightAware
07:20 40.3450 14.4790 116° Southeast 502 578 35,000  Level FlightAware
07:21 40.2990 14.6050 116° Southeast 502 578 35,000  Level FlightAware
07:21 40.2570 14.7160 116° Southeast 503 579 35,000  Level FlightAware
07:22 40.2150 14.8270 116° Southeast 504 580 35,000  Level FlightAware
07:23 40.1710 14.9460 116° Southeast 506 582 35,000  Level FlightAware
07:23 40.1300 15.0560 116° Southeast 507 583 35,000  Level FlightAware
07:24 40.0810 15.1840 117° Southeast 508 585 35,000  Level FlightAware
07:25 40.0390 15.2950 116° Southeast 507 583 35,000 -120 Level FlightAware
07:25 39.9940 15.4120 117° Southeast 506 582 34,900  Descending FlightAware
07:26 39.9520 15.5220 116° Southeast 506 582 35,000 60 Climbing FlightAware
07:27 39.9030 15.6490 117° Southeast 506 582 35,000 -120 Level FlightAware
07:28 39.8620 15.7550 117° Southeast 506 582 34,900  Descending FlightAware
07:28 39.8190 15.8660 117° Southeast 506 582 35,000  Climbing FlightAware
07:29 39.7730 15.9850 117° Southeast 504 580 34,900  Descending FlightAware
07:30 39.7310 16.0940 117° Southeast 503 579 35,000  Climbing FlightAware
07:30 39.6830 16.2160 117° Southeast 501 577 34,900  Descending FlightAware
07:31 39.6400 16.3240 117° Southeast 503 579 35,000 60 Climbing FlightAware
07:32 39.5990 16.4300 117° Southeast 503 579 35,000  Level FlightAware
07:32 39.5520 16.5480 117° Southeast 504 580 35,000  Level FlightAware
07:33 39.5080 16.6570 118° Southeast 505 581 35,000  Level FlightAware
07:34 39.4610 16.7760 117° Southeast 506 582 35,000  Level FlightAware
07:35 39.4160 16.8860 118° Southeast 507 583 35,000  Level FlightAware
07:35 39.3750 16.9900 117° Southeast 508 585 35,000  Level FlightAware
07:36 39.3280 17.1060 118° Southeast 507 583 35,000  Level FlightAware
07:37 39.2860 17.2090 118° Southeast 506 582 35,000  Level FlightAware
07:37 39.2400 17.3220 118° Southeast 506 582 35,000  Level FlightAware
07:38 39.1910 17.4410 118° Southeast 507 583 35,000  Level FlightAware
07:39 39.1470 17.5490 118° Southeast 506 582 35,000  Level FlightAware
07:39 39.1170 17.6220 118° Southeast 506 582 35,000  Level FlightAware
07:40 39.0680 17.7400 118° Southeast 505 581 35,000  Level FlightAware
07:41 39.0220 17.8510 118° Southeast 506 582 35,000  Level FlightAware
07:42 38.9730 17.9690 118° Southeast 506 582 35,000  Level FlightAware
07:42 38.9270 18.0780 118° Southeast 506 582 35,000  Level FlightAware
07:43 38.8710 18.2120 118° Southeast 506 582 35,000  Level FlightAware
07:44 38.8170 18.3400 118° Southeast 507 583 35,000  Level FlightAware
07:45 38.7710 18.4480 119° Southeast 508 585 35,000  Level FlightAware
07:45 38.7240 18.5580 119° Southeast 508 585 35,000  Level FlightAware
07:46 38.6760 18.6700 119° Southeast 509 586 35,000  Level FlightAware
07:47 38.6370 18.7700 117° Southeast 512 589 35,000  Level FlightAware
07:47 38.6000 18.8870 112° Southeast 512 589 35,000  Level FlightAware
07:48 38.5640 19.0130 110° East 513 590 35,000  Level FlightAware
07:49 38.5370 19.1100 110° East 513 590 35,000  Level FlightAware
07:49 38.5090 19.2070 110° East 513 590 35,000  Level FlightAware
07:50 38.4600 19.3620 112° Southeast 511 588 35,000  Level FlightAware
07:51 38.4250 19.4760 111° Southeast 511 588 35,000  Level FlightAware
07:52 38.3830 19.6150 111° Southeast 511 588 35,000  Level FlightAware
07:52 38.3510 19.7200 111° Southeast 510 587 35,000  Level FlightAware
07:53 38.3170 19.8330 111° Southeast 510 587 35,000  Level FlightAware
07:54 38.2810 19.9480 112° Southeast 512 589 35,000  Level FlightAware
07:54 38.2300 20.1130 111° Southeast 511 588 35,000  Level FlightAware
07:55 38.1920 20.2360 111° Southeast 509 586 35,000 240 Level FlightAware
07:56 38.1570 20.3480 112° Southeast 510 587 35,400 960 Climbing FlightAware
07:56 38.1170 20.4750 112° Southeast 512 589 36,400 1,080 Climbing FlightAware
07:57 38.0820 20.5860 112° Southeast 512 589 37,000 420 Climbing FlightAware
07:58 38.0460 20.7000 112° Southeast 511 588 37,000 -120 Level FlightAware
07:59 38.0110 20.8150 111° Southeast 511 588 36,900  Descending FlightAware
07:59 37.9710 20.9350 113° Southeast 509 586 37,000 60 Climbing FlightAware
08:00 37.9220 21.0860 112° Southeast 509 586 37,000  Level FlightAware
08:01 37.8830 21.2060 112° Southeast 509 586 37,000  Level FlightAware
08:02 37.8460 21.3190 112° Southeast 510 587 37,000  Level FlightAware
08:02 37.8050 21.4450 112° Southeast 511 588 37,000  Level FlightAware
08:03 37.7690 21.5550 112° Southeast 512 589 37,000  Level FlightAware
08:04 37.7340 21.6620 112° Southeast 513 590 37,000  Level FlightAware
08:04 37.6920 21.7860 113° Southeast 515 593 37,000  Level FlightAware
08:05 37.6540 21.9000 113° Southeast 515 593 37,000  Level FlightAware
08:06 37.6170 22.0120 113° Southeast 516 594 37,000  Level FlightAware
08:06 37.5760 22.1340 113° Southeast 517 595 37,000  Level FlightAware
08:07 37.5390 22.2430 113° Southeast 517 595 37,000  Level FlightAware
08:08 37.4960 22.3710 113° Southeast 518 596 37,000  Level FlightAware
08:09 37.4580 22.4820 113° Southeast 518 596 37,000  Level FlightAware
08:09 37.4140 22.6090 114° Southeast 519 597 37,000  Level FlightAware
08:10 37.3780 22.7150 113° Southeast 520 598 37,000  Level FlightAware
08:11 37.3380 22.8310 113° Southeast 521 600 37,000  Level FlightAware
08:11 37.2960 22.9540 113° Southeast 522 601 37,000  Level FlightAware
08:12 37.2580 23.0620 114° Southeast 523 602 37,000  Level FlightAware
08:13 37.2130 23.1920 113° Southeast 524 603 37,000  Level FlightAware
08:13 37.1740 23.3040 114° Southeast 524 603 37,000  Level FlightAware
08:14 37.1310 23.4260 114° Southeast 523 602 37,000  Level FlightAware
08:15 37.0930 23.5360 113° Southeast 524 603 37,000  Level FlightAware
08:16 37.0460 23.6660 114° Southeast 525 604 37,000  Level FlightAware
08:16 37.0070 23.7750 114° Southeast 525 604 37,000  Level FlightAware
08:17 36.9680 23.8850 114° Southeast 525 604 37,000  Level FlightAware
08:18 36.9240 24.0080 114° Southeast 525 604 37,000  Level FlightAware
08:18 36.8840 24.1180 114° Southeast 527 606 37,000  Level FlightAware
08:19 36.8370 24.2480 114° Southeast 527 606 37,000  Level FlightAware
08:20 36.7980 24.3580 114° Southeast 527 606 37,000  Level FlightAware
08:21 36.7530 24.4820 114° Southeast 527 606 37,000  Level FlightAware
08:21 36.7140 24.5900 114° Southeast 526 605 37,000  Level FlightAware
08:22 36.6730 24.7000 115° Southeast 526 605 37,000  Level FlightAware
08:23 36.6270 24.8260 114° Southeast 524 603 37,000  Level FlightAware
08:23 36.5920 24.9220 114° Southeast 524 603 37,000 -120 Level FlightAware
08:24 36.5460 25.0460 115° Southeast 524 603 36,900  Descending FlightAware
08:25 36.5060 25.1550 115° Southeast 524 603 37,000 60 Climbing FlightAware
08:25 36.4600 25.2780 115° Southeast 524 603 37,000  Level FlightAware
08:26 36.4190 25.3900 114° Southeast 525 604 37,000  Level FlightAware
08:27 36.3790 25.4940 116° Southeast 524 603 37,000 -120 Level FlightAware
08:28 36.3270 25.6330 115° Southeast 524 603 36,900  Descending FlightAware
08:28 36.2870 25.7390 115° Southeast 524 603 37,000 60 Climbing FlightAware
08:29 36.2500 25.8390 115° Southeast 525 604 37,000 -120 Level FlightAware
08:30 36.1980 25.9750 115° Southeast 525 604 36,900  Descending FlightAware
08:30 36.1600 26.0750 115° Southeast 524 603 37,000 60 Climbing FlightAware
08:31 36.1120 26.2020 115° Southeast 526 605 37,000  Level FlightAware
08:32 36.0820 26.2810 115° Southeast 529 609 37,000  Level FlightAware
08:32 36.0400 26.3910 115° Southeast 529 609 37,000  Level FlightAware
08:33 35.9960 26.5070 115° Southeast 529 609 37,000  Level FlightAware
08:34 35.9310 26.6750 115° Southeast 528 608 37,000  Level FlightAware
08:35 35.8810 26.8030 116° Southeast 531 611 37,000  Level FlightAware
08:35 35.8320 26.9300 115° Southeast 533 613 37,000  Level FlightAware
08:36 35.7830 27.0560 116° Southeast 534 615 37,000  Level FlightAware
08:37 35.7480 27.1490 115° Southeast 534 615 37,000  Level FlightAware
08:38 35.7040 27.2670 115° Southeast 534 615 37,000  Level FlightAware
08:38 35.6680 27.3600 115° Southeast 534 615 37,000  Level FlightAware
08:39 35.6330 27.4540 115° Southeast 534 615 37,000  Level FlightAware
08:40 35.5970 27.5480 115° Southeast 534 615 37,000  Level FlightAware
08:40 35.5620 27.6410 115° Southeast 534 615 37,000  Level FlightAware
08:41 35.4550 27.8850 118° Southeast 536 617 37,000  Level FlightAware
08:42 35.4110 27.9960 116° Southeast 538 619 37,000  Level FlightAware
08:43 35.3660 28.1070 116° Southeast 538 619 37,000  Level FlightAware
08:43 35.3230 28.2150 116° Southeast 539 620 37,000  Level FlightAware
08:44 35.2710 28.3420 117° Southeast 540 621 37,000  Level FlightAware
08:45 35.2240 28.4600 116° Southeast 540 621 37,000  Level FlightAware
08:45 35.1790 28.5710 116° Southeast 540 621 37,000  Level FlightAware
08:46 35.1420 28.6600 117° Southeast 540 621 37,000  Level FlightAware
08:47 35.0950 28.7740 117° Southeast 541 623 37,000  Level FlightAware
08:48 35.0370 28.9160 116° Southeast 542 624 37,000  Level FlightAware
08:48 34.9880 29.0360 116° Southeast 542 624 37,000  Level FlightAware
08:49 34.9430 29.1450 117° Southeast 542 624 37,000  Level FlightAware
08:50 34.8850 29.2880 116° Southeast 542 624 37,000  Level FlightAware
08:51 34.8350 29.4040 118° Southeast 541 623 37,000  Level FlightAware
08:51 34.7900 29.5140 116° Southeast 539 620 37,000  Level FlightAware
08:52 34.7430 29.6250 117° Southeast 538 619 37,000  Level FlightAware
08:53 34.6920 29.7480 117° Southeast 537 618 37,000  Level FlightAware
08:53 34.6480 29.8520 117° Southeast 536 617 37,000  Level FlightAware
08:54 34.6000 29.9670 117° Southeast 535 616 37,000  Level FlightAware
08:55 34.5620 30.0530 118° Southeast 535 616 37,000  Level FlightAware
08:55 34.4980 30.1860 120° Southeast 529 609 37,000  Level FlightAware
08:56 34.4420 30.3040 120° Southeast 528 608 37,000  Level FlightAware
08:57 34.3930 30.4080 120° Southeast 527 606 37,000  Level FlightAware
08:58 34.3380 30.5240 120° Southeast 526 605 37,000  Level FlightAware
08:58 34.2870 30.6310 120° Southeast 526 605 37,000  Level FlightAware
09:00 34.1890 30.8360 120° Southeast 524 603 37,000  Level FlightAware
09:00 34.1370 30.9420 121° Southeast 523 602 37,000  Level FlightAware
09:01 34.0850 31.0500 120° Southeast 522 601 37,000 -120 Level FlightAware
09:02 34.0340 31.1570 120° Southeast 522 601 36,900  Descending FlightAware
09:02 33.9830 31.2600 121° Southeast 523 602 37,000 60 Climbing FlightAware
09:03 33.9280 31.3730 120° Southeast 524 603 37,000  Level FlightAware
09:04 33.8770 31.4770 121° Southeast 524 603 37,000  Level FlightAware
09:05 33.8200 31.5930 121° Southeast 523 602 37,000  Level FlightAware
09:05 33.7700 31.6950 121° Southeast 522 601 37,000  Level FlightAware
09:06 33.7200 31.7950 121° Southeast 521 600 37,000  Level FlightAware
09:07 33.6630 31.9100 121° Southeast 520 598 37,000 -120 Level FlightAware
09:07 33.6080 32.0210 121° Southeast 520 598 36,900  Descending FlightAware
09:08 33.5500 32.1360 121° Southeast 521 600 37,000  Climbing FlightAware
09:09 33.4820 32.2720 121° Southeast 521 600 37,000 -60 Level FlightAware
09:10 33.4260 32.3840 121° Southeast 519 597 36,900  Descending FlightAware
09:11 33.3740 32.4860 121° Southeast 517 595 37,000 -180 Climbing FlightAware
09:11 33.3180 32.5970 121° Southeast 513 590 36,700 -1,320 Descending FlightAware
09:12 33.2690 32.6940 121° Southeast 508 585 35,200 -2,280 Descending FlightAware
09:13 33.2290 32.7720 121° Southeast 503 579 33,900 -2,340 Descending FlightAware
09:13 33.1690 32.8900 121° Southeast 499 574 32,100 -2,340 Descending FlightAware
09:14 33.1150 32.9960 121° Southeast 489 563 30,400 -2,160 Descending FlightAware
09:15 33.0640 33.0930 122° Southeast 479 551 28,900 -2,100 Descending FlightAware
09:16 33.0170 33.1850 121° Southeast 465 535 27,500 -2,100 Descending FlightAware
09:16 32.9770 33.2620 122° Southeast 453 521 26,300 -1,980 Descending FlightAware
09:17 32.9220 33.3680 122° Southeast 440 506 24,700 -1,980 Descending FlightAware
09:18 32.8790 33.4500 122° Southeast 430 495 23,400 -1,920 Descending FlightAware
09:18 32.8330 33.5390 122° Southeast 419 482 22,000 -1,920 Descending FlightAware
09:19 32.7930 33.6140 122° Southeast 413 475 20,700 -1,920 Descending FlightAware
09:20 32.7530 33.6910 122° Southeast 405 466 19,500 -1,860 Descending FlightAware
09:20 32.7080 33.7760 122° Southeast 399 459 18,100 -1,860 Descending FlightAware
09:21 32.6680 33.8520 122° Southeast 393 452 16,900 -1,800 Descending FlightAware
09:22 32.6240 33.9340 122° Southeast 388 447 15,600 -1,800 Descending FlightAware
09:23 32.5860 34.0050 122° Southeast 382 440 14,400 -1,800 Descending FlightAware
09:23 32.5490 34.0750 122° Southeast 370 426 13,200 -1,740 Descending FlightAware
09:24 32.5100 34.1470 123° Southeast 355 409 12,000 -1,740 Descending FlightAware
09:25 32.4660 34.2050 132° Southeast 329 379 10,800 -1,380 Descending FlightAware
09:25 32.4210 34.2590 135° Southeast 288 331 10,100 -960 Descending FlightAware
09:26 32.3970 34.2860 136° Southeast 275 316 9,700 -1,080 Descending FlightAware
09:26 32.3840 34.3000 138° Southeast 281 323 9,400 -1,200 Descending FlightAware
09:27 32.3540 34.3360 135° Southeast 284 327 8,800 -780 Descending FlightAware
09:27 32.3200 34.3750 136° Southeast 278 320 8,500 -300 Descending FlightAware
09:28 32.2970 34.4030 134° Southeast 278 320 8,500  Level FlightAware
09:28 32.2810 34.4210 136° Southeast 278 320 8,500  Level FlightAware
09:28 32.2660 34.4390 135° Southeast 278 320 8,500  Level FlightAware
09:29 32.2500 34.4580 135° Southeast 278 320 8,500  Level FlightAware
09:31 32.0895 34.6898 125° Southeast  Level FlightAware Approximate
09:32 32.0195 34.8342 125° Southeast  Level FlightAware Approximate
09:33 32.0000 34.8667 125° Southeast  Level FlightAware Approximate
09:34 32.0095 34.8769 125° Southeast  Level Estimated
09:35 32.0095 34.8769 125° Southeast  Level Estimated
09:36 32.0095 34.8769 125° Southeast  Level Estimated
09:37 32.0095 34.8769 125° Southeast  Level Estimated
09:38 32.0095 34.8769 125° Southeast  Level Estimated
09:39 32.0095 34.8769 125° Southeast  Level Estimated
09:40 32.0095 34.8769 125° Southeast  Level Estimated
09:41 32.0095 34.8769 125° Southeast  Level Estimated